sat.trackr.live / text

‹ back to catalog

STARLINK-34274

NORAD 64348 · 2025-126E

PAYLOAD ACTIVE UNKNOWN

§ Identity

Operator
Country
US
Launch date
2025-06-13
Launch site
AFWTR
Launch vehicle
Mass (kg)
RCS (m²)

Purposes: comms

External: N2YO · Heavens-Above · Gunter

§ Orbital elements

Epoch: 2026-05-25T02:31:31.410624Z

Period
96.11 min
Inclination
70.0004°
Eccentricity
0.0003787
Mean motion
14.98336641 rev/d
Perigee alt
569.4 km
Apogee alt
574.7 km
Semi-major
6,950.2 km
B*
2.5062e-4
RAAN
201.9699°
Arg perigee
267.5611°
Mean anomaly
92.5114°
Rev number
5,212

§ Raw data

STARLINK-342741 64348U 25126E   26145.10522466  .00002899  00000+0  25062-3 0  99902 64348  70.0004 201.9699 0003787 267.5611  92.5114 14.98336641 52124

JSON: /api/v1/satellites/64348 · /tle

For live sub-satellite position, see the globe view (requires WebGL).

§ Visibility from observer

Set your observer location to see the next 7 days of passes ≥ 10°. The values pass through the URL so the page stays shareable.

No JS? Fill the form by hand. The geolocation button needs JavaScript.